User: anonymous   Login
Location: Unspecified
(0.0000°N, 0.0000°E)
Time: 22:50:29
(UTC+00:00)
Language:

OBJECT Y - Orbit

View from above orbital plane
View from above orbital plane
View from above satellite
View from above satellite

Ground track
Ground track

The orbit data is extracted from the following two-line orbital elements,

1 43133U 18004Y   19047.76063825  .00000726  00000-0  33925-4 0  9996
2 43133  97.5031 115.6592 0008829 330.6952  29.3788 15.22979905 60928
Epoch (UTC): 16 February 2019 18:15:19
Eccentricity: 0.0008829
inclination: 97.5031°
perigee height: 491 km
apogee height: 503 km
right ascension of ascending node: 115.6592°
argument of perigee: 330.6952°
revolutions per day: 15.22979905
mean anomaly at epoch: 29.3788°
orbit number at epoch: 6092

The dashed part of the orbit path shows where the satellite is in the earth's shadow,  

DLR